Starlink 5491

operational
NORAD ID: 55332 Int'l Des: 2023-013 Owner: SPXS Country: US Constellation: starlink
LEOCIRCULAR

Starlink 5491について

説明を読み込み中...

リアルタイム位置

3D地球を読み込み中...

次回通過

高度履歴

Altitude vs Time

uPlot chart will show altitude changes over time

軌道要素

1 55332U 23013B 25258.42849048 .00000535 00000-0 54644-4 0 9998
2 55332 43.0031 159.8011 0001271 268.2306 91.8391 15.02537543145493
Epoch: Sep 15, 2025 • Age: 12 hours

現在のステータス

高度 571.2 km
速度 7.58 km/s
衛星直下点 -42.36°S, 104.93°E
打ち上げ日 Jan 26, 2023
運用期間 2.6 years
タイプ internet

技術仕様

分類 Payload
質量 305.00 kg
乾燥質量 290.00 kg
総質量 305.00 kg
長さ 0.20 m
直径 2.80 m
スパン 9.00 m
形状 Box + pan
製造者 SPXS
バスタイプ Starlink
フェーズステータス In Orbit
所有者/国 SPXS/US

大規模コンステレーション

Loading constellations...